Погода в Ратенове

Германия     52°36′19″N   12°20′32″E
темп.,
°C
ветер,
м/с
пор.,
м/с
влажн.,
%
обл.,
%
осадки,
мм/ч
давл.,
гПа
погр.,
м
10 апреля, сб
сб1023:00+6зсз2384100 0.0 101356
02:00+4св229576 0.0 101344
05:00+4с2492100 0.1 1013131
08:00+4ссв2695100 1.3 1014290
11:00+5ссв2492100 0.4 1016461
14:00+6вюв2285100 0.4 1017465
17:00+6вюв2485100 0.0 1017367
20:00+5в3892100 0.0 1016384
11 апреля, вс
вс1123:00+6вюв41096100 1.4 1014514
02:00+6вюв41197100 4.8 1012407
05:00+7юв31196100 0.1 1010334
08:00+9ююз41289100 0.2 1010482
11:00+10ююз399099 0.3 1010360
14:00+16юз3561100 0.4 10101336
17:00+14зсз3477100 0.8 1010420
20:00+8сз599598 0.8 1012450
12 апреля, пн
пн1223:00+5сз4895100 1.1 1014439
02:00+2сз4997100 3.4 1017441
05:00+3сз4892100 0.1 1018767
08:00+3сз4989100 0.1 1021673
11:00+5сз5765100 0.0 10231021
14:00+7сз4652100 0.0 10241462
17:00+8сз3642100 0.0 10231957
20:00+5сз2560100 0.0 1025107
13 апреля, вт
вт1323:00+3сз387095 0.0 1027180
02:00+1зсз287990 0.0 1027205
05:00−1з389086 0.0 1028187
08:00+2з49816 0.0 1028398
11:00+7зсз565674 0.0 10281506
14:00+8сз574897 0.1 10281895
17:00+9ссз574382 0.2 10272040
20:00+4ссз387724 0.6 1028209
14 апреля, ср
ср1423:00+1сз368772 0.0 1030123
02:000сз3892100 0.0 1030193
05:00−1зсз3897100 0.0 1030172
08:00+1сз378499 0.0 1031289
11:00+7ссз455470 0.0 10301186
14:00+9ссз344699 0.1 10291790
17:00+8ссз3555100 0.7 10281436
20:00+5ссв4963100 0.9 1029371